Tracking 28565 objects as of 3-Mar-2024
HD Live streaming from Space Station
objects crossing your sky now

STARLINK-5574

Track STARLINK-5574 now!
10-day predictions
STARLINK-5574 is classified as:


NORAD ID: 55362
Int'l Code: 2023-013AH
Perigee: 565.5 km
Apogee: 566.9 km
Inclination: 43.0 °
Period: 95.8 minutes
Semi major axis: 6937 km
RCS: Unknown
Launch date: January 26, 2023
Source: United States (US)
Launch site: AIR FORCE EASTERN TEST RANGE (AFETR)
Your satellite tracking list
Your tracking list is empty




NASA's NSSDC Master Catalog

Two Line Element Set (TLE):
1 55362U 23013AH  24063.20690885  .00001949  00000-0  15924-3 0  9990
2 55362  43.0039 329.1379 0001030 275.8761  84.1964 15.02546551 61076
Source of the keplerian elements: AFSPC